KE9LZ-9 Weather Reports


time (UTC)temp
C
wind
direction
speed
KPH
gust
KPH
rain 1hr
cm
rain 24hr
cm
rain mn
cm
humidity
%
barometer
mb
20220124102504 -15 230 0.0 0.0 0.00 0.00 0.00 79 1003.8
20220124102004 -15 230 0.0 0.0 0.00 0.00 0.00 79 1003.7
20220124101504 -15 230 0.0 0.0 0.00 0.00 0.00 79 1003.7
20220124101004 -15 228 0.0 1.6 0.00 0.00 0.00 78 1003.8
20220124100004 -15 235 0.0 1.6 0.00 0.00 0.00 78 1003.8
20220124095503 -15 231 0.0 1.6 0.00 0.00 0.00 77 1003.5
20220124095004 -15 217 0.0 0.0 0.00 0.00 0.00 76 1003.9
20220124094503 -15 217 0.0 0.0 0.00 0.00 0.00 76 1003.8
20220124094003 -15 217 0.0 0.0 0.00 0.00 0.00 76 1004.1
20220124093503 -15 217 0.0 0.0 0.00 0.00 0.00 77 1003.9
20220124093004 -15 217 0.0 0.0 0.00 0.00 0.00 76 1004.0
20220124092503 -15 217 0.0 0.0 0.00 0.00 0.00 76 1004.0
20220124092005 -15 217 0.0 1.6 0.00 0.00 0.00 77 1003.9
20220124091504 -15 217 0.0 3.2 0.00 0.00 0.00 76 1003.8
20220124091003 -15 155 0.0 1.6 0.00 0.00 0.00 76 1003.9
20220124090003 -15 160 0.0 0.0 0.00 0.00 0.00 76 1004.3
20220124085504 -15 160 0.0 0.0 0.00 0.00 0.00 76 1004.2
20220124085004 -15 160 0.0 0.0 0.00 0.00 0.00 76 1004.4
20220124084503 -15 160 0.0 0.0 0.00 0.00 0.00 76 1004.5
20220124084004 -15 159 0.0 0.0 0.00 0.00 0.00 75 1004.7
20220124083504 -15 156 0.0 1.6 0.00 0.00 0.00 75 1004.5
20220124083003 -15 163 1.6 1.6 0.00 0.00 0.00 75 1004.6
20220124082504 -15 244 0.0 0.0 0.00 0.00 0.00 75 1004.6
20220124082003 -15 244 0.0 1.6 0.00 0.00 0.00 75 1004.8
20220124081503 -15 249 0.0 0.0 0.00 0.00 0.00 75 1005.0
20220124081003 -15 249 0.0 0.0 0.00 0.00 0.00 75 1005.3
20220124080004 -15 249 0.0 0.0 0.00 0.00 0.00 75 1005.3
20220124075503 -15 249 0.0 0.0 0.00 0.00 0.00 75 1005.4
20220124075004 -15 249 0.0 0.0 0.00 0.00 0.00 75 1005.3
20220124074504 -15 249 0.0 0.0 0.00 0.00 0.00 75 1005.3
20220124074004 -15 249 0.0 0.0 0.00 0.00 0.00 75 1005.5
20220124073503 -15 249 0.0 0.0 0.00 0.00 0.00 75 1005.3
20220124073004 -15 249 0.0 1.6 0.00 0.00 0.00 75 1005.2
20220124072504 -15 248 0.0 0.0 0.00 0.00 0.00 76 1005.4
20220124072004 -15 246 0.0 1.6 0.00 0.00 0.00 75 1005.5
20220124071503 -15 252 0.0 3.2 0.00 0.00 0.00 75 1005.5
20220124071004 -15 212 0.0 4.8 0.00 0.00 0.00 75 1005.7
20220124070003 -15 272 1.6 4.8 0.00 0.00 0.00 75 1006.0
20220124065504 -15 250 1.6 4.8 0.00 0.00 0.00 74 1006.2
20220124065004 -15 271 1.6 8.0 0.00 0.00 0.00 73 1006.4
20220124064503 -14 224 1.6 3.2 0.00 0.00 0.00 71 1006.2
20220124064003 -14 246 3.2 8.0 0.00 0.00 0.00 69 1006.2
20220124063504 -14 279 3.2 8.0 0.00 0.00 0.00 69 1006.5
20220124063004 -14 238 1.6 8.0 0.00 0.00 0.00 67 1006.4
20220124062503 -14 253 4.8 9.7 0.00 0.00 0.00 66 1006.4
20220124062004 -14 258 4.8 14.5 0.00 0.00 0.00 64 1006.6
20220124061504 -14 255 3.2 11.3 0.00 0.00 0.00 62 1006.8
20220124061006 -14 273 3.2 11.3 0.00 0.00 0.00 61 1006.9
20220124060003 -14 287 1.6 8.0 0.00 0.00 0.00 61 1007.1
20220124055504 -14 267 1.6 11.3 0.00 0.00 0.00 60 1007.2
20220124055003 -14 242 3.2 8.0 0.00 0.00 0.00 61 1006.9
20220124054504 -14 255 1.6 4.8 0.00 0.00 0.00 62 1006.9
20220124054003 -14 256 3.2 8.0 0.00 0.00 0.00 62 1006.9
20220124053503 -14 247 3.2 4.8 0.00 0.00 0.00 62 1007.1
20220124053004 -14 249 1.6 4.8 0.00 0.00 0.00 64 1007.4
20220124052504 -14 256 0.0 4.8 0.00 0.00 0.00 63 1007.4
20220124052003 -14 252 3.2 8.0 0.00 0.00 0.00 62 1007.3
20220124051503 -14 248 1.6 4.8 0.00 0.00 0.00 63 1007.6
20220124051003 -14 273 0.0 4.8 0.00 0.00 0.00 63 1007.6
20220124050004 -14 297 3.2 8.0 0.00 0.00 0.00 64 1007.7
20220124045503 -14 272 3.2 8.0 0.00 0.00 0.00 64 1007.6
20220124045004 -14 241 1.6 8.0 0.00 0.00 0.00 64 1007.9
20220124044504 -14 261 3.2 9.7 0.00 0.00 0.00 64 1007.5
20220124044003 -13 250 1.6 8.0 0.00 0.00 0.00 64 1007.8
20220124043503 -14 246 3.2 4.8 0.00 0.00 0.00 64 1007.8
20220124043004 -14 260 3.2 8.0 0.00 0.00 0.00 63 1007.8
20220124042503 -13 240 3.2 9.7 0.00 0.00 0.00 64 1007.9
20220124042004 -13 260 1.6 3.2 0.00 0.00 0.00 64 1007.7
20220124041503 -13 254 1.6 3.2 0.00 0.00 0.00 64 1007.7
20220124041004 -13 255 0.0 4.8 0.00 0.00 0.00 64 1007.9
20220124040004 -13 248 1.6 4.8 0.00 0.00 0.00 64 1007.6
20220124035503 -13 238 3.2 4.8 0.00 0.00 0.00 64 1007.9
20220124035003 -13 234 1.6 3.2 0.00 0.00 0.00 64 1007.7
20220124034505 -13 247 1.6 8.0 0.00 0.00 0.00 64 1007.9
20220124034004 -13 248 4.8 8.0 0.00 0.00 0.00 63 1007.8
20220124033504 -13 250 3.2 9.7 0.00 0.00 0.00 63 1008.1
20220124033004 -13 240 1.6 4.8 0.00 0.00 0.00 63 1008.0
20220124032504 -13 272 3.2 8.0 0.00 0.00 0.00 63 1007.9
20220124032003 -13 266 1.6 8.0 0.00 0.00 0.00 63 1007.9
20220124031504 -13 262 3.2 11.3 0.00 0.00 0.00 64 1007.9
20220124031003 -13 236 3.2 9.7 0.00 0.00 0.00 63 1008.2
20220124030004 -13 256 4.8 9.7 0.00 0.00 0.00 63 1008.1
20220124025504 -13 247 3.2 8.0 0.00 0.00 0.00 63 1008.2
20220124025003 -13 295 3.2 8.0 0.00 0.00 0.00 63 1008.3
20220124024503 -13 246 3.2 9.7 0.00 0.00 0.00 63 1008.4
20220124024003 -13 254 4.8 11.3 0.00 0.00 0.00 63 1008.5
20220124023503 -13 274 3.2 9.7 0.00 0.00 0.00 63 1008.3
20220124023004 -13 247 1.6 11.3 0.00 0.00 0.00 62 1008.5
20220124022503 -13 268 4.8 20.9 0.00 0.00 0.00 62 1008.7
20220124022004 -13 277 6.4 20.9 0.00 0.00 0.00 62 1008.8
20220124021504 -13 281 3.2 4.8 0.00 0.00 0.00 63 1008.9
20220124021004 -13 288 3.2 9.7 0.00 0.00 0.00 62 1008.8
20220124020004 -13 262 4.8 9.7 0.00 0.00 0.00 61 1008.8
20220124015504 -13 254 3.2 11.3 0.00 0.00 0.00 62 1008.8
20220124015004 -13 249 3.2 11.3 0.00 0.00 0.00 63 1009.0
20220124014503 -13 258 4.8 11.3 0.00 0.00 0.00 62 1009.1
20220124014003 -13 277 3.2 8.0 0.00 0.00 0.00 62 1009.2
20220124013504 -13 272 4.8 11.3 0.00 0.00 0.00 63 1009.1
20220124013004 -13 259 3.2 9.7 0.00 0.00 0.00 64 1009.5
20220124012504 -14 273 3.2 8.0 0.00 0.00 0.00 64 1009.4
20220124012005 -14 260 3.2 8.0 0.00 0.00 0.00 65 1009.4
20220124011504 -14 260 3.2 9.7 0.00 0.00 0.00 66 1009.6
20220124011003 -15 261 3.2 9.7 0.00 0.00 0.00 66 1009.5
20220124010003 -15 253 3.2 4.8 0.00 0.00 0.00 66 1009.8
20220124005504 -15 250 1.6 3.2 0.00 0.00 0.00 66 1009.8
20220124005004 -15 255 1.6 3.2 0.00 0.00 0.00 66 1009.8
20220124004503 -16 252 1.6 3.2 0.00 0.00 0.00 65 1009.8
20220124004004 -16 243 1.6 3.2 0.00 0.00 0.00 64 1010.0
20220124003503 -15 246 3.2 8.0 0.00 0.00 0.00 64 1010.1
20220124003004 -15 285 1.6 4.8 0.00 0.00 0.00 64 1010.3
20220124002504 -15 255 1.6 4.8 0.00 0.00 0.00 64 1009.9
20220124002003 -15 269 1.6 4.8 0.00 0.00 0.00 63 1010.1
20220124001503 -15 259 1.6 8.0 0.00 0.00 0.00 63 1010.1
20220124001004 -15 266 1.6 9.7 0.00 0.00 0.00 63 1010.3
20220124000004 -15 252 1.6 3.2 0.00 0.00 0.00 61 1010.3
20220123235503 -15 243 0.0 1.6 0.00 0.00 0.00 61 1010.2
20220123235003 -15 240 0.0 1.6 0.00 0.00 0.00 62 1010.6
20220123234503 -15 253 0.0 1.6 0.00 0.00 0.00 60 1010.4
20220123234004 -14 260 0.0 4.8 0.00 0.00 0.00 59 1010.3
20220123233504 -14 240 0.0 1.6 0.00 0.00 0.00 59 1010.5
20220123233004 -13 261 0.0 0.0 0.00 0.00 0.00 58 1010.5
20220123232504 -13 261 0.0 1.6 0.00 0.00 0.00 57 1010.7
20220123232004 -13 278 0.0 0.0 0.00 0.00 0.00 55 1010.9
20220123231504 -12 278 0.0 0.0 0.00 0.00 0.00 55 1010.7
20220123231003 -12 278 0.0 3.2 0.00 0.00 0.00 54 1011.0
20220123230003 -12 278 0.0 3.2 0.00 0.00 0.00 53 1010.8
20220123225503 -11 255 0.0 1.6 0.00 0.00 0.00 52 1010.6
20220123225004 -11 246 1.6 3.2 0.00 0.00 0.00 52 1010.9
20220123224504 -11 246 1.6 4.8 0.00 0.00 0.00 51 1010.8
20220123224004 -10 258 1.6 4.8 0.00 0.00 0.00 50 1011.0
20220123223504 -10 242 3.2 8.0 0.00 0.00 0.00 50 1011.0
20220123223004 -10 257 3.2 14.5 0.00 0.00 0.00 49 1011.0
20220123222504 -10 267 3.2 16.1 0.00 0.00 0.00 49 1010.9
20220123222004 -10 246 4.8 16.1 0.00 0.00 0.00 48 1010.8
20220123221504 -9 268 4.8 11.3 0.00 0.00 0.00 47 1011.1
20220123221004 -9 297 4.8 9.7 0.00 0.00 0.00 46 1011.0
20220123220004 -9 252 4.8 11.3 0.00 0.00 0.00 44 1010.8
20220123215503 -9 269 3.2 11.3 0.00 0.00 0.00 45 1010.8
20220123215004 -8 243 1.6 4.8 0.00 0.00 0.00 44 1011.0
20220123214503 -8 260 3.2 8.0 0.00 0.00 0.00 45 1010.9
20220123214004 -8 248 4.8 11.3 0.00 0.00 0.00 43 1010.9
20220123213503 -8 236 3.2 9.7 0.00 0.00 0.00 45 1011.1
20220123213004 -8 231 3.2 9.7 0.00 0.00 0.00 45 1010.9
20220123212503 -8 230 4.8 14.5 0.00 0.00 0.00 44 1011.0
20220123212004 -8 291 4.8 12.9 0.00 0.00 0.00 42 1010.9
20220123211503 -8 252 3.2 9.7 0.00 0.00 0.00 43 1011.0
20220123211004 -8 276 4.8 14.5 0.00 0.00 0.00 43 1011.0
20220123210004 -8 282 4.8 9.7 0.00 0.00 0.00 43 1011.2
20220123205504 -8 299 4.8 14.5 0.00 0.00 0.00 44 1011.1
20220123205005 -8 291 4.8 14.5 0.00 0.00 0.00 45 1011.2
20220123204503 -8 281 1.6 8.0 0.00 0.00 0.00 45 1011.2
20220123204004 -8 286 1.6 9.7 0.00 0.00 0.00 45 1011.3
20220123203503 -8 286 4.8 12.9 0.00 0.00 0.00 45 1011.3
20220123203004 -8 307 4.8 19.3 0.00 0.00 0.00 46 1011.3
20220123202504 -8 264 1.6 14.5 0.00 0.00 0.00 49 1011.4
20220123202003 -8 303 6.4 12.9 0.00 0.00 0.00 48 1011.3
20220123201503 -8 201 3.2 14.5 0.00 0.00 0.00 48 1011.6
20220123201004 -8 269 6.4 12.9 0.00 0.00 0.00 48 1011.4
20220123200003 -9 290 3.2 11.3 0.00 0.00 0.00 49 1011.5
20220123195503 -9 292 6.4 12.9 0.00 0.00 0.00 50 1011.4
20220123195004 -9 250 3.2 11.3 0.00 0.00 0.00 51 1011.3
20220123194504 -9 323 1.6 9.7 0.00 0.00 0.00 50 1011.6
20220123194004 -9 275 4.8 11.3 0.00 0.00 0.00 50 1011.7
20220123193503 -9 333 1.6 3.2 0.00 0.00 0.00 51 1011.9
20220123193004 -9 280 3.2 9.7 0.00 0.00 0.00 50 1011.7
20220123192504 -9 267 0.0 3.2 0.00 0.00 0.00 51 1011.8
20220123192003 -9 288 4.8 8.0 0.00 0.00 0.00 50 1011.8
20220123191503 -9 342 3.2 11.3 0.00 0.00 0.00 51 1012.1
20220123191004 -9 314 1.6 8.0 0.00 0.00 0.00 52 1012.4
20220123190003 -9 237 3.2 8.0 0.00 0.00 0.00 51 1012.2
20220123185504 -9 208 1.6 9.7 0.00 0.00 0.00 51 1012.2
20220123185004 -8 278 4.8 4.8 0.00 0.00 0.00 51 1012.3
20220123184503 -8 169 0.0 4.8 0.00 0.00 0.00 52 1012.5
20220123184004 -9 237 3.2 9.7 0.00 0.00 0.00 50 1012.6
20220123183503 -9 275 4.8 12.9 0.00 0.00 0.00 50 1012.7
20220123183004 -9 1 3.2 9.7 0.00 0.00 0.00 52 1012.7
20220123182504 -9 272 1.6 3.2 0.00 0.00 0.00 52 1012.8
20220123182003 -9 106 0.0 4.8 0.00 0.00 0.00 55 1012.9
20220123181504 -10 262 3.2 4.8 0.00 0.00 0.00 54 1013.2
20220123181003 -10 340 3.2 9.7 0.00 0.00 0.00 55 1013.0
20220123180004 -10 275 3.2 11.3 0.00 0.00 0.00 56 1013.3
20220123175503 -10 305 4.8 11.3 0.00 0.00 0.00 55 1013.6
20220123175003 -10 27 1.6 4.8 0.00 0.00 0.00 56 1013.7
20220123174504 -10 287 4.8 12.9 0.00 0.00 0.00 56 1013.8
20220123174004 -10 262 3.2 11.3 0.00 0.00 0.00 55 1013.8
20220123173503 -10 322 1.6 8.0 0.00 0.00 0.00 56 1014.0
20220123173004 -10 297 3.2 8.0 0.00 0.00 0.00 57 1014.1
20220123172503 -10 30 1.6 4.8 0.00 0.00 0.00 57 1014.4
20220123172004 -10 44 3.2 9.7 0.00 0.00 0.00 57 1014.2
20220123171504 -10 254 4.8 9.7 0.00 0.00 0.00 57 1014.4
20220123171003 -11 42 1.6 16.1 0.00 0.00 0.00 58 1014.3
20220123170004 -11 302 1.6 11.3 0.00 0.00 0.00 59 1014.4
20220123165503 -11 304 1.6 11.3 0.00 0.00 0.00 58 1014.6
20220123165004 -11 298 1.6 4.8 0.00 0.00 0.00 60 1014.4
20220123164503 -11 2 0.0 8.0 0.00 0.00 0.00 60 1014.6
20220123164004 -11 290 1.6 9.7 0.00 0.00 0.00 60 1014.7
20220123163503 -11 291 3.2 8.0 0.00 0.00 0.00 60 1014.9
20220123163004 -11 356 1.6 9.7 0.00 0.00 0.00 62 1014.7
20220123162503 -11 296 3.2 11.3 0.00 0.00 0.00 61 1014.4
20220123162003 -11 351 1.6 3.2 0.00 0.00 0.00 62 1014.7
20220123161503 -11 102 1.6 9.7 0.00 0.00 0.00 62 1014.6
20220123161004 -11 160 1.6 9.7 0.00 0.00 0.00 62 1014.5
20220123160004 -11 300 3.2 9.7 0.00 0.00 0.00 63 1014.7
20220123155504 -11 7 0.0 3.2 0.00 0.00 0.00 64 1014.6
20220123155004 -11 341 1.6 4.8 0.00 0.00 0.00 64 1014.6
20220123154503 -11 17 3.2 8.0 0.00 0.00 0.00 66 1014.8
20220123154004 -12 314 1.6 4.8 0.00 0.00 0.00 70 1014.7
20220123153503 -13 53 1.6 8.0 0.00 0.00 0.00 72 1014.7
20220123153004 -13 272 3.2 12.9 0.00 0.00 0.00 75 1014.7
20220123152503 -15 267 3.2 8.0 0.00 0.00 0.00 78 1014.6
20220123152004 -16 305 1.6 4.8 0.00 0.00 0.00 80 1014.7
20220123151503 -17 263 3.2 4.8 0.00 0.00 0.00 80 1014.6
20220123151004 -18 293 0.0 4.8 0.00 0.00 0.00 83 1014.6
20220123150004 -19 265 1.6 3.2 0.00 0.00 0.00 82 1014.6
20220123145504 -20 269 1.6 4.8 0.00 0.00 0.00 83 1014.9
20220123145003 -20 307 1.6 4.8 0.00 0.00 0.00 82 1015.0
20220123144504 -21 299 0.0 3.2 0.00 0.00 0.00 82 1015.0
20220123144004 -21 268 0.0 3.2 0.00 0.00 0.00 81 1014.8
20220123143504 -22 276 0.0 1.6 0.00 0.00 0.00 80 1014.6
20220123143003 -22 270 0.0 1.6 0.00 0.00 0.00 80 1014.7
20220123142503 -22 272 0.0 1.6 0.00 0.00 0.00 80 1014.5
20220123142004 -22 286 0.0 1.6 0.00 0.00 0.00 80 1014.7
20220123141504 -22 287 0.0 0.0 0.00 0.00 0.00 80 1014.6
20220123141003 -22 287 0.0 1.6 0.00 0.00 0.00 80 1014.6
20220123140004 -21 289 0.0 1.6 0.00 0.00 0.00 80 1014.6
20220123135504 -21 290 0.0 0.0 0.00 0.00 0.00 80 1014.5
20220123135004 -21 290 0.0 0.0 0.00 0.00 0.00 81 1014.5
20220123134504 -21 290 0.0 1.6 0.00 0.00 0.00 81 1014.6
20220123134004 -21 288 0.0 1.6 0.00 0.00 0.00 81 1014.5
20220123133504 -21 287 0.0 0.0 0.00 0.00 0.00 80 1014.6
20220123133003 -21 287 0.0 1.6 0.00 0.00 0.00 80 1014.6
20220123132504 -21 278 0.0 1.6 0.00 0.00 0.00 80 1014.6
20220123132004 -21 278 0.0 1.6 0.00 0.00 0.00 80 1014.5
20220123131503 -21 278 0.0 0.0 0.00 0.00 0.00 79 1014.4
20220123131004 -21 278 0.0 1.6 0.00 0.00 0.00 79 1014.5
20220123130004 -20 276 0.0 0.0 0.00 0.00 0.00 79 1014.5
20220123125504 -20 276 0.0 0.0 0.00 0.00 0.00 79 1014.6
20220123125003 -20 276 0.0 0.0 0.00 0.00 0.00 79 1014.6
20220123124503 -20 275 0.0 0.0 0.00 0.00 0.00 78 1014.9
20220123124004 -20 278 0.0 0.0 0.00 0.00 0.00 79 1014.9
20220123123504 -19 278 0.0 1.6 0.00 0.00 0.00 79 1014.8
20220123123004 -19 278 0.0 0.0 0.00 0.00 0.00 78 1014.8
20220123122504 -19 278 0.0 1.6 0.00 0.00 0.00 78 1014.7
20220123122004 -19 278 0.0 0.0 0.00 0.00 0.00 78 1014.6
20220123121503 -18 278 0.0 0.0 0.00 0.00 0.00 78 1014.8
20220123121004 -18 278 0.0 3.2 0.00 0.00 0.00 78 1014.7
20220123120004 -18 44 0.0 3.2 0.00 0.00 0.00 78 1014.6
20220123115504 -18 49 1.6 9.7 0.00 0.00 0.00 78 1014.7
20220123115004 -18 295 0.0 0.0 0.00 0.00 0.00 78 1014.5
20220123114504 -18 294 0.0 0.0 0.00 0.00 0.00 78 1014.7
20220123114004 -18 294 0.0 0.0 0.00 0.00 0.00 77 1014.6
20220123113503 -18 295 0.0 0.0 0.00 0.00 0.00 77 1014.6
20220123113004 -18 294 0.0 0.0 0.00 0.00 0.00 77 1014.2
20220123112504 -18 294 0.0 0.0 0.00 0.00 0.00 77 1014.2
20220123112004 -18 294 0.0 0.0 0.00 0.00 0.00 77 1014.2
20220123111503 -17 294 0.0 0.0 0.00 0.00 0.00 76 1014.2
20220123111003 -17 295 0.0 1.6 0.00 0.00 0.00 76 1014.4
20220123110004 -17 295 0.0 0.0 0.00 0.00 0.00 75 1014.4
20220123105503 -17 295 0.0 1.6 0.00 0.00 0.00 75 1014.2
20220123105004 -17 296 0.0 1.6 0.00 0.00 0.00 75 1014.2
20220123104504 -16 296 0.0 0.0 0.00 0.00 0.00 74 1014.0
20220123104003 -16 296 0.0 0.0 0.00 0.00 0.00 74 1014.3
20220123103503 -16 296 0.0 0.0 0.00 0.00 0.00 74 1014.2
20220123103004 -16 302 0.0 1.6 0.00 0.00 0.00 74 1014.0